Weather History for Luverne, MN

Change the Weather History Date:

Monday, February 4, 2013

  Actual Average (KFSD) Record (KFSD)
Temperature  
Mean Temperature 16 °F 18 °F  
Max Temperature 23 °F 28 °F 61 °F (2005)
Min Temperature 10 °F 9 °F -29 °F (1899)
Degree Days  
Heating Degree Days 48 47  
Month to date heating degree days 188  
Since 1 July heating degree days 4820  
Cooling Degree Days 0 0  
Month to date cooling degree days 0  
Year to date cooling degree days 0  
Moisture  
Dew Point 12 °F    
Average Humidity 79    
Maximum Humidity 93    
Minimum Humidity 68    
Precipitation  
Precipitation 0.00 in 0.01 in 0.92 in (1945)
Month to date precipitation 0.07  
Year to date precipitation 0.63  
Snow  
Snow 0.00 in 0.20 in 10.50 in (1945)
Month to date snowfall 1.0  
Since 1 July snowfall 25.6  
Snow Depth -    
Sea Level Pressure  
Sea Level Pressure 29.91 in    
Wind  
Wind Speed 10 mph (WSW)    
Max Wind Speed 20 mph    
Max Gust Speed 25 mph    
Visibility 10 miles    
Events Snow    
T = Trace of Precipitation, MM = Missing Value Source: NWS Daily Summary

Daily Weather History Graph

Daily Weather History Graph

Search for Another Location

Airport:

Trip Planner

Search our weather history database for the weather conditions in past years. The results will help you decide how hot, cold, wet, or windy it might be!

Date:

Astronomy

Feb. 04, 2013 Rise Set
Actual Time 7:37 AM CST 5:40 PM CST
Civil Twilight 7:07 AM CST 6:10 PM CST
Nautical Twilight 6:33 AM CST 6:44 PM CST
Astronomical Twilight 5:59 AM CST 7:18 PM CST
Moon 2:16 AM CST (2/4) 12:02 PM CST (2/4)
Length of Visible Light 11h 03m
Length of Day
10h 03m
Last Quarter, 37% of the Moon is Illuminated
Feb 4
Last Quarter
Feb 10
New
Feb 17
First Quarter
Feb 25
Full
Mar 4
Last Quarter

Hourly Weather History & Observations

Time (CST) Temp. Windchill Dew Point Humidity Pressure Visibility Wind Dir Wind Speed Gust Speed Precip Events Conditions
12:16 AM 17.6 °F 2.2 °F 14.0 °F 86% 29.85 in 10.0 mi NE 17.3 mph 24.2 mph N/A   Overcast
12:36 AM 17.6 °F 1.3 °F 12.2 °F 79% 29.86 in 10.0 mi NE 19.6 mph 25.3 mph N/A   Overcast
12:56 AM 17.6 °F 3.2 °F 12.2 °F 79% 29.87 in 10.0 mi NE 15.0 mph 21.9 mph N/A   Overcast
1:16 AM 17.6 °F 3.2 °F 12.2 °F 79% 29.87 in 10.0 mi NE 15.0 mph - N/A   Overcast
1:36 AM 17.6 °F 4.3 °F 12.2 °F 79% 29.87 in 10.0 mi NE 12.7 mph 19.6 mph N/A   Overcast
1:56 AM 17.6 °F 4.3 °F 12.2 °F 79% 29.88 in 10.0 mi NE 12.7 mph - N/A   Overcast
2:16 AM 17.6 °F 4.3 °F 12.2 °F 79% 29.88 in 10.0 mi NE 12.7 mph 20.7 mph N/A   Overcast
2:36 AM 17.6 °F 5.0 °F 12.2 °F 79% 29.90 in 10.0 mi NNE 11.5 mph - N/A   Overcast
2:56 AM 15.8 °F 3.4 °F 10.4 °F 79% 29.91 in 10.0 mi NNE 10.4 mph - N/A   Overcast
3:16 AM 15.8 °F 3.4 °F 10.4 °F 79% 29.91 in 10.0 mi NNE 10.4 mph 17.3 mph N/A   Overcast
4:56 AM 14.0 °F 2.9 °F 10.4 °F 86% 29.95 in 10.0 mi NNE 8.1 mph - N/A   Overcast
5:16 AM 14.0 °F 2.0 °F 8.6 °F 79% 29.96 in 10.0 mi NNE 9.2 mph - N/A   Overcast
5:37 AM 14.0 °F 0.5 °F 8.6 °F 79% 29.97 in 10.0 mi NNE 11.5 mph 17.3 mph N/A   Overcast
6:16 AM 12.2 °F 0.7 °F 6.8 °F 79% 29.97 in 10.0 mi NNE 8.1 mph - N/A   Overcast
6:37 AM 12.2 °F 0.7 °F 5.0 °F 73% 29.98 in 10.0 mi NNE 8.1 mph - N/A   Overcast
6:56 AM 10.4 °F -0.4 °F 5.0 °F 79% 29.99 in 10.0 mi North 6.9 mph - N/A   Scattered Clouds
7:16 AM 10.4 °F 0.8 °F 5.0 °F 79% 30.00 in 10.0 mi North 5.8 mph - N/A   Clear
7:36 AM 10.4 °F 2.2 °F 5.0 °F 79% 30.00 in 10.0 mi NNE 4.6 mph - N/A   Clear
7:56 AM 10.4 °F 0.8 °F 5.0 °F 79% 29.98 in 10.0 mi ENE 5.8 mph - N/A   Clear
8:16 AM 10.4 °F 4.0 °F 5.0 °F 79% 29.99 in 10.0 mi NE 3.5 mph - N/A   Clear
8:36 AM 10.4 °F 4.0 °F 5.0 °F 79% 30.02 in 10.0 mi North 3.5 mph - N/A   Clear
8:56 AM 10.4 °F 0.8 °F 5.0 °F 79% 30.03 in 5.0 mi North 5.8 mph - N/A Snow Light Snow
9:16 AM 10.4 °F 2.2 °F 5.0 °F 79% 30.03 in 10.0 mi NNE 4.6 mph - N/A   Clear
9:36 AM 12.2 °F 4.3 °F 5.0 °F 73% 30.04 in 5.0 mi North 4.6 mph - N/A Snow Light Snow
9:57 AM 12.2 °F 4.3 °F 5.0 °F 73% 30.03 in 5.0 mi North 4.6 mph - N/A Snow Light Snow
10:16 AM 12.2 °F - 5.0 °F 73% 30.02 in 4.0 mi Calm Calm - N/A Snow Light Snow
10:36 AM 12.2 °F - 5.0 °F 73% 30.01 in 10.0 mi Calm Calm - N/A   Clear
10:56 AM 14.0 °F 8.2 °F 6.8 °F 73% 30.00 in 7.0 mi East 3.5 mph - N/A   Clear
11:16 AM 14.0 °F 6.5 °F 8.6 °F 79% 29.99 in 10.0 mi East 4.6 mph - N/A   Clear
11:36 AM 15.8 °F - 8.6 °F 73% 30.00 in 10.0 mi Calm Calm - N/A Snow Light Snow
11:56 AM 17.6 °F 12.3 °F 8.6 °F 68% 30.00 in 7.0 mi WSW 3.5 mph - N/A   Clear
12:16 PM 17.6 °F 12.3 °F 10.4 °F 73% 30.00 in 10.0 mi WNW 3.5 mph - N/A   Clear
12:36 PM 17.6 °F 12.3 °F 10.4 °F 73% 29.99 in 5.0 mi West 3.5 mph - N/A Snow Light Snow
12:56 PM 19.4 °F 11.5 °F 10.4 °F 68% 29.99 in 10.0 mi West 5.8 mph - N/A Snow Light Snow
1:16 PM 19.4 °F 12.8 °F 12.2 °F 74% 29.99 in 10.0 mi West 4.6 mph - N/A   Scattered Clouds
1:36 PM 19.4 °F 11.5 °F 12.2 °F 74% 29.97 in 10.0 mi WSW 5.8 mph - N/A   Scattered Clouds
1:57 PM 19.4 °F - 12.2 °F 74% 29.96 in 10.0 mi Calm Calm - N/A   Mostly Cloudy
2:16 PM 19.4 °F 10.4 °F 12.2 °F 74% 29.96 in 10.0 mi WSW 6.9 mph - N/A   Mostly Cloudy
2:36 PM 21.2 °F 14.9 °F 12.2 °F 68% 29.95 in 10.0 mi WSW 4.6 mph - N/A   Mostly Cloudy
2:57 PM 21.2 °F 13.6 °F 12.2 °F 68% 29.94 in 10.0 mi West 5.8 mph - N/A   Overcast
3:16 PM 21.2 °F 14.9 °F 14.0 °F 74% 29.93 in 10.0 mi WSW 4.6 mph - N/A   Mostly Cloudy
3:36 PM 21.2 °F 14.9 °F 14.0 °F 74% 29.91 in 10.0 mi SW 4.6 mph - N/A   Scattered Clouds
3:56 PM 21.2 °F 12.6 °F 14.0 °F 74% 29.91 in 10.0 mi SW 6.9 mph - N/A   Clear
4:16 PM 23.0 °F 13.1 °F 14.0 °F 68% 29.90 in 10.0 mi SSW 9.2 mph - N/A   Scattered Clouds
4:36 PM 21.2 °F 11.7 °F 15.8 °F 80% 29.89 in 10.0 mi SSW 8.1 mph - N/A   Scattered Clouds
4:56 PM 21.2 °F 11.7 °F 15.8 °F 80% 29.88 in 10.0 mi SSW 8.1 mph - N/A   Scattered Clouds
5:16 PM 21.2 °F 10.1 °F 15.8 °F 80% 29.89 in 10.0 mi SW 10.4 mph - N/A   Scattered Clouds
5:36 PM 21.2 °F 10.1 °F 15.8 °F 80% 29.87 in 10.0 mi SSW 10.4 mph - N/A   Mostly Cloudy
5:56 PM 21.2 °F 10.1 °F 17.6 °F 86% 29.86 in 10.0 mi SSW 10.4 mph - N/A   Overcast
6:16 PM 21.2 °F 9.5 °F 17.6 °F 86% 29.85 in 10.0 mi SSW 11.5 mph - N/A   Overcast
6:36 PM 21.2 °F 8.9 °F 17.6 °F 86% 29.84 in 10.0 mi South 12.7 mph - N/A   Overcast
6:56 PM 21.2 °F 8.3 °F 17.6 °F 86% 29.84 in 10.0 mi SSW 13.8 mph - N/A   Overcast
7:16 PM 21.2 °F 8.9 °F 17.6 °F 86% 29.85 in 10.0 mi SSW 12.7 mph - N/A   Mostly Cloudy
7:37 PM 23.0 °F 11.1 °F 17.6 °F 80% 29.85 in 10.0 mi SSW 12.7 mph - N/A   Overcast
7:56 PM 23.0 °F 11.1 °F 17.6 °F 80% 29.85 in 10.0 mi SW 12.7 mph - N/A   Overcast
8:16 PM 23.0 °F 13.1 °F 17.6 °F 80% 29.85 in 10.0 mi SW 9.2 mph - N/A   Overcast
8:36 PM 23.0 °F 13.1 °F 19.4 °F 86% 29.84 in 10.0 mi SSW 9.2 mph - N/A   Overcast
8:56 PM 23.0 °F 14.7 °F 19.4 °F 86% 29.83 in 10.0 mi SSW 6.9 mph - N/A   Overcast
9:16 PM 23.0 °F 13.9 °F 19.4 °F 86% 29.82 in 10.0 mi SSW 8.1 mph - N/A   Scattered Clouds
9:36 PM 23.0 °F 13.9 °F 19.4 °F 86% 29.81 in 10.0 mi SSW 8.1 mph - N/A   Mostly Cloudy
9:56 PM 21.2 °F 10.9 °F 19.4 °F 93% 29.80 in 10.0 mi SSW 9.2 mph - N/A   Scattered Clouds
10:16 PM 21.2 °F 12.6 °F 17.6 °F 86% 29.79 in 10.0 mi South 6.9 mph - N/A   Clear
10:37 PM 21.2 °F 11.7 °F 19.4 °F 93% 29.78 in 10.0 mi South 8.1 mph - N/A   Mostly Cloudy
10:56 PM 23.0 °F 12.4 °F 19.4 °F 86% 29.77 in 10.0 mi South 10.4 mph - N/A   Mostly Cloudy
11:16 PM 21.2 °F 11.7 °F 19.4 °F 93% 29.77 in 10.0 mi South 8.1 mph - N/A   Scattered Clouds
11:37 PM 21.2 °F 11.7 °F 19.4 °F 93% 29.76 in 10.0 mi South 8.1 mph - N/A   Scattered Clouds
11:56 PM 21.2 °F 13.6 °F 19.4 °F 93% 29.75 in 10.0 mi South 5.8 mph - N/A   Scattered Clouds